Weather History for Middletown, PA

Change the Weather History Date:

Tuesday, October 30, 2012

  Actual Average Record
Temperature  
Mean Temperature 46 °F 50 °F  
Max Temperature 52 °F 60 °F 80 °F (1946)
Min Temperature 40 °F 40 °F 24 °F (1965)
Degree Days  
Heating Degree Days 19 15  
Month to date heating degree days 269 323  
Since 1 July heating degree days 322 395  
Cooling Degree Days 0 0  
Month to date cooling degree days 5 10  
Year to date cooling degree days 1226 1003  
Moisture  
Dew Point 40 °F    
Average Humidity 88    
Maximum Humidity 92    
Minimum Humidity 83    
Precipitation  
Precipitation 0.53 in 0.09 in 1.39 in (1917)
Month to date precipitation 6.56 3.18  
Year to date precipitation 40.36 34.19  
Snow  
Snow 0.00 in - - ()
Month to date snowfall 0.0  
Since 1 July snowfall 0.0  
Since 1 September snowfall 0.0  
Snow Depth 0.00 in    
Sea Level Pressure  
Sea Level Pressure 29.20 in    
Wind  
Wind Speed 13 mph (SSE)    
Max Wind Speed 32 mph    
Max Gust Speed 44 mph    
Visibility 8 miles    
Events Rain    
T = Trace of Precipitation, MM = Missing Value Source: NWS Daily Summary

Daily Weather History Graph

Daily Weather History Graph

Search for Another Location

Airport:

Trip Planner

Search our weather history database for the weather conditions in past years. The results will help you decide how hot, cold, wet, or windy it might be!

Date:

Astronomy

Oct. 30, 2012 Rise Set
Actual Time 7:34 AM EDT 6:06 PM EDT
Civil Twilight 7:06 AM EDT 6:34 PM EDT
Nautical Twilight 6:34 AM EDT 7:06 PM EDT
Astronomical Twilight 6:02 AM EDT 7:37 PM EDT
Moon 6:34 PM EDT (10/30) 8:19 AM EDT (10/30)
Length of Visible Light 11h 27m
Length of Day
10h 31m
Full, 99% of the Moon is Illuminated
Oct 30
Full
Nov 6
Last Quarter
Nov 13
New
Nov 20
First Quarter
Nov 28
Full

Hourly Weather History & Observations

Time (EDT) Temp. Windchill Dew Point Humidity Pressure Visibility Wind Dir Wind Speed Gust Speed Precip Events Conditions
12:28 AM 53.6 °F - 50.0 °F 88% 28.46 in 3.0 mi NE 20.7 mph 34.5 mph 0.04 in Rain Light Rain
12:50 AM 51.8 °F - 48.2 °F 88% 28.48 in 2.5 mi NE 23.0 mph 36.8 mph 0.07 in Rain Rain
12:56 AM 52.0 °F - 48.9 °F 89% 28.48 in 2.5 mi NE 19.6 mph 36.8 mph 0.07 in Rain Rain
1:16 AM 51.8 °F - 48.2 °F 88% 28.49 in 4.0 mi ENE 21.9 mph 34.5 mph 0.02 in Rain Light Rain
6:56 AM 41.0 °F 32.2 °F 37.9 °F 89% 29.00 in 10.0 mi SE 18.4 mph 28.8 mph 0.03 in Rain Light Rain
7:56 AM 41.0 °F 31.6 °F 37.9 °F 89% 29.06 in 10.0 mi SE 20.7 mph 27.6 mph 0.02 in Rain Light Rain
8:56 AM 42.1 °F 34.2 °F 39.0 °F 89% 29.11 in 10.0 mi SE 16.1 mph 25.3 mph 0.00 in Rain Light Rain
9:56 AM 43.0 °F 36.4 °F 37.9 °F 82% 29.16 in 10.0 mi SE 12.7 mph - 0.00 in   Overcast
10:56 AM 43.0 °F 36.8 °F 39.0 °F 86% 29.19 in 10.0 mi SSE 11.5 mph - 0.00 in Rain Light Rain
11:56 AM 44.1 °F 37.7 °F 39.9 °F 85% 29.23 in 9.0 mi SSE 12.7 mph 20.7 mph 0.02 in Rain Light Rain
12:56 PM 43.0 °F 37.7 °F 39.9 °F 89% 29.26 in 10.0 mi SSE 9.2 mph - 0.02 in Rain Light Rain
1:31 PM 42.8 °F 37.0 °F 39.2 °F 87% 29.26 in 8.0 mi SSE 10.4 mph - 0.02 in Rain Light Rain
1:56 PM 44.1 °F 40.1 °F 39.9 °F 85% 29.28 in 7.0 mi SSE 6.9 mph - 0.04 in Rain Light Rain
2:32 PM 44.6 °F 40.2 °F 41.0 °F 87% 29.28 in 6.0 mi SSE 8.1 mph - 0.02 in Rain Light Rain
2:56 PM 43.0 °F 38.8 °F 39.9 °F 89% 29.29 in 7.0 mi South 6.9 mph - 0.04 in Rain Light Rain
3:29 PM 42.8 °F 38.0 °F 39.2 °F 87% 29.30 in 7.0 mi SSE 8.1 mph - 0.01 in Rain Light Rain
3:56 PM 43.0 °F 38.2 °F 39.0 °F 86% 29.32 in 9.0 mi SSE 8.1 mph - 0.02 in Rain Light Rain
4:56 PM 43.0 °F 38.2 °F 39.0 °F 86% 29.34 in 8.0 mi South 8.1 mph - 0.01 in Rain Light Rain
5:14 PM 42.8 °F 39.3 °F 39.2 °F 87% 29.35 in 8.0 mi South 5.8 mph - 0.00 in Rain Light Rain
5:28 PM 42.8 °F 39.3 °F 39.2 °F 87% 29.35 in 6.0 mi South 5.8 mph - 0.01 in Rain Light Rain
5:56 PM 42.1 °F 37.7 °F 39.0 °F 89% 29.38 in 7.0 mi South 6.9 mph - 0.02 in Rain Light Rain
6:56 PM 42.1 °F 37.1 °F 39.0 °F 89% 29.41 in 10.0 mi South 8.1 mph - 0.00 in   Overcast
7:09 PM 42.8 °F 39.3 °F 37.4 °F 81% 29.40 in 10.0 mi South 5.8 mph - N/A   Overcast
7:22 PM 42.8 °F 38.6 °F 39.2 °F 87% 29.40 in 10.0 mi South 6.9 mph - N/A   Overcast
7:56 PM 41.0 °F 36.4 °F 37.9 °F 89% 29.42 in 10.0 mi South 6.9 mph - 0.00 in Rain Light Rain
8:26 PM 41.0 °F 36.4 °F 37.4 °F 87% 29.42 in 7.0 mi SSE 6.9 mph - 0.01 in Rain Light Rain
8:56 PM 41.0 °F 36.4 °F 37.9 °F 89% 29.44 in 8.0 mi South 6.9 mph - 0.01 in Rain Light Rain
9:56 PM 41.0 °F 36.4 °F 37.9 °F 89% 29.45 in 8.0 mi South 6.9 mph - 0.02 in Rain Light Rain
10:38 PM 41.0 °F 36.4 °F 37.4 °F 87% 29.44 in 10.0 mi South 6.9 mph - 0.01 in Rain Light Rain
10:56 PM 39.9 °F 36.7 °F 37.9 °F 93% 29.45 in 10.0 mi SSW 4.6 mph - 0.01 in Rain Light Rain
11:56 PM 39.2 °F 37.0 °F 37.4 °F 93% 29.44 in 10.0 mi SSW 3.5 mph - N/A   Overcast